CAPE
4436 4444 4383 4386 4116 4476 4001 4178 4025 3621 2597 1914 1882 1641 1550 966 1128 1369 1190 445 474 675 402 505 758 756 83 46 307 694 514 351 85 135 77 206 954 873 557 430 116 349 68
3954 4477 4398 4515 4327 4137 4291 4215 4231 3532 2788 2086 1927 1592 1302 1147 1080 1180 840 368 352 462 756 941 403 110 945 1298 262 991 216 501 59 683 291 109 590 771 905 1001 361 53 87
3619 3673 4398 4566 4400 4235 4425 4398 4109 3316 2508 1699 1844 1599 1038 1014 1161 1253 1011 956 696 363 365 397 361 435 1057 583 673 610 62 533 593 268 78 20 141 126 159 596 478 203 216
2649 3257 4221 4568 4557 4395 4630 4302 3892 2937 2299 1714 1542 1506 978 1043 693 1006 685 682 543 530 394 815 506 590 1091 1336 1179 1397 1179 442 420 127 209 175 209 334 187 265 111 107 87
3428 3686 4298 4737 4749 4776 4371 4141 3359 2813 1543 1564 1536 627 594 264 431 1125 846 640 789 532 772 586 1161 1034 438 274 378 803 1392 337 110 89 127 109 57 347 205 113 95 102 156
3925 4063 4435 4828 4783 4537 4143 4175 3150 2160 1561 1426 1060 400 471 510 221 138 746 541 1169 1194 1276 1349 1317 482 485 140 93 31 75 337 575 106 118 102 356 157 104 46 40 9 15
4486 4336 4688 4844 4751 4167 3588 3632 3033 2342 1698 1460 1035 737 766 996 7 0 1 612 975 1336 1349 1502 1158 888 188 170 153 143 16 3 5 175 223 276 382 420 377 351 233 91 24
4431 4597 4784 4651 4297 3634 3347 3651 3245 2442 1854 1123 1147 1004 1094 1180 67 0 0 621 1136 1324 1345 1327 1212 616 308 119 108 114 134 223 558 245 315 294 435 235 61 50 93 40 30
4364 4658 4513 4204 4105 3575 2751 3104 3081 2693 1804 1458 1156 1151 1235 1320 281 13 0 447 696 1355 1509 767 589 280 86 2 0 6 48 290 171 49 13 0 0 0 0 0 1 28 33
4202 4318 4174 4036 3614 3029 2778 2787 2912 2387 1926 1219 989 1222 809 1226 701 7 4 1725 1507 915 1431 951 26 154 2 0 23 66 86 297 295 295 132 30 12 14 0 27 61 64 89
3522 3502 3707 3192 3311 3118 2974 2766 2082 1474 1153 1205 929 808 975 1057 1266 0 0 1536 1313 1536 954 642 236 1 0 0 0 87 73 42 92 30 8 7 65 71 54 147 263 92 50
3746 3088 3118 3235 2843 2608 2403 2068 1756 1289 1493 1316 1164 1071 1720 1900 703 0 0 3 184 787 623 255 142 1 0 0 0 0 0 0 0 0 13 43 15 16 18 24 146 124 21
3756 3718 3639 3220 2469 2432 1749 1396 1198 1252 1173 1194 1015 1820 1710 1565 1030 7 1 1 0 31 195 42 0 0 0 0 0 0 0 0 0 27 33 10 4 4 95 25 105 239 214
3406 3080 2403 1974 1907 1697 1190 1223 1258 1128 1172 1205 1201 1313 1365 1505 950 118 0 2 1 0 1 7 0 0 0 0 0 0 0 2 24 4 0 0 0 0 0 0 0 0 0
2422 2194 1814 1759 1682 996 35 289 1119 521 359 1219 956 876 756 697 413 15 0 5 2 17 212 330 109 60 41 46 22 87 22 52 26 10 2 0 0 0 0 0 0 0 9
2098 1829 1333 1166 993 948 456 0 0 0 0 0 0 160 0 0 0 0 0 0 0 0 92 200 126 137 195 328 236 65 124 23 15 9 0 0 0 0 0 0 0 0 18
1880 1537 1397 1225 1224 989 753 413 32 0 0 0 0 0 0 0 0 0 0 0 0 0 0 0 35 138 343 106 33 22 21 20 10 0 0 0 0 0 0 0 0 0 21
1302 676 1092 718 643 509 367 305 116 4 0 0 0 0 0 0 0 0 0 0 0 0 0 0 3 144 46 24 23 18 15 11 3 0 0 0 0 0 0 0 0 0 4
372 385 345 131 60 34 49 84 89 58 57 0 0 0 0 0 0 0 0 0 0 0 0 1 2 3 3 4 5 6 4 0 0 0 0 0 0 0 0 0 0 0 0
257 30 25 96 30 10 118 198 144 119 74 3 0 0 0 0 0 0 0 0 0 0 0 0 0 0 0 1 3 1 0 0 0 0 0 0 0 0 0 0 0 0 0
283 0 0 121 133 223 220 156 94 113 145 101 83 10 0 0 2 14 7 1 0 0 0 0 0 0 0 0 0 0 0 0 0 0 0 0 0 0 0 0 0 0 0
237 68 75 165 134 236 358 428 450 201 285 184 1 0 0 0 21 18 12 7 3 1 0 0 0 1 0 0 0 0 0 0 0 0 0 0 0 0 0 0 0 0 0
251 186 154 304 80 36 170 240 362 410 274 236 7 2 1 0 0 13 10 14 13 8 2 0 0 0 0 0 0 0 0 0 0 0 0 0 0 0 0 0 0 0 0
157 217 276 371 225 350 452 355 404 62 137 196 175 24 13 2 15 22 15 17 18 11 2 0 0 0 0 0 0 0 0 0 0 0 0 0 0 0 0 0 0 0 0
120 91 150 193 253 175 119 158 272 242 142 148 139 49 65 40 13 24 25 24 27 16 10 2 0 0 0 0 0 0 0 0 0 0 0 0 0 0 0 0 0 0 0
61 49 61 88 140 249 145 238 302 251 170 190 37 98 49 52 32 34 41 23 30 27 11 7 1 0 0 0 0 0 0 0 0 0 0 0 0 0 0 0 0 0 0
CIN
-2 -3 -1 0 0 0 0 0 0 0 -1 -33 -50 -52 -38 -98 -74 -1 -46 -34 -10 0 -1 -5 0 -1 -34 -35 -15 -11 -3 -21 -86 -42 -2 -16 -4 0 0 -7 -88 -88 -1
-26 -5 -7 -1 -1 0 0 0 0 0 -14 -45 -58 -56 -56 -48 -57 -29 -26 -20 -16 -8 0 0 0 -45 0 -1 -23 -1 0 -5 -38 0 -5 -46 -1 -1 -9 -2 -12 0 0
-54 -44 -9 -6 -7 -7 0 0 0 -15 -56 -125 -80 -78 -112 -69 -53 -18 -21 -2 -2 -7 -11 -1 -1 -1 0 -9 0 0 -6 -2 -11 -16 -9 -1 -12 -135 -118 -9 -62 -84 -22
-67 -59 -33 -14 -15 -15 0 -7 -12 -54 -111 -166 -150 -108 -132 -79 -77 -23 -43 -23 -19 -12 -8 0 0 0 0 -1 0 0 0 -15 -9 -4 -20 -26 -9 -5 -5 -8 -15 -39 -18
-38 -47 -32 -12 -9 0 -9 -12 -39 -58 -182 -154 -122 -209 -189 -219 -102 -19 -16 -38 -10 -13 0 0 0 -2 -49 -25 -9 -1 -1 -4 0 0 0 0 0 -14 -11 -14 -6 0 -5
-25 -41 -21 -9 -12 -19 -23 -15 -49 -72 -120 -144 -164 -278 -201 -129 -148 -191 -57 -35 0 0 0 0 -3 -31 -28 -72 -109 -84 -64 -16 -4 -9 -3 0 -7 -60 -1 0 0 0 0
-26 -52 -12 -5 -11 -29 -49 -36 -82 -115 -153 -183 -203 -207 -109 -34 -203 0 -158 -19 0 0 0 0 -8 -19 -137 -105 -106 -52 -59 -104 -61 -15 -26 -7 -7 -8 -8 -14 -19 -6 0
-76 -36 -7 -9 -23 -60 -83 -62 -71 -113 -132 -199 -154 -105 -47 -20 -228 0 0 -7 0 0 0 0 -7 -26 -50 -114 -53 -21 -11 -22 -12 -28 -4 -4 -1 -1 -6 -1 0 0 0
-86 -37 -33 -41 -35 -67 -146 -104 -78 -65 -112 -117 -121 -82 -42 -17 -150 -158 0 -8 0 0 0 -31 -33 -76 -181 -158 -22 -116 -63 -39 -2 -9 -35 0 0 0 0 0 0 0 -1
-96 -70 -47 -36 -61 -103 -107 -76 -46 -62 -65 -117 -137 -72 -87 -17 -51 -142 -242 0 0 0 0 -4 -170 -86 -222 0 -100 -22 -6 -9 -21 -23 -3 -8 0 -2 -2 -53 -9 0 0
-109 -79 -49 -82 -60 -53 -66 -61 -105 -160 -173 -108 -121 -126 -45 -17 -23 0 0 -1 0 0 0 -22 -98 -28 0 0 0 -24 -3 -14 -9 -10 -8 0 0 0 0 -38 -33 -1 0
-32 -65 -61 -49 -60 -69 -74 -84 -96 -136 -71 -71 -60 -50 -2 0 -17 0 0 -6 -69 -4 0 -67 -93 -95 0 0 0 0 0 0 0 0 0 -1 0 0 0 -2 -10 -7 -2
-15 -16 -20 -33 -74 -64 -126 -141 -142 -97 -85 -47 -53 -2 0 0 -3 -6 0 0 0 -164 -82 -5 0 0 0 0 0 0 0 0 0 0 0 0 0 -1 -1 -1 -5 -2 -2
-24 -43 -89 -109 -123 -117 -160 -128 -105 -88 -54 -39 -32 -18 0 0 -1 -75 0 0 0 0 -30 -11 0 0 0 0 0 0 0 -1 -1 0 0 0 0 0 0 0 0 0 0
-66 -82 -110 -102 -81 -185 -85 -129 -73 -43 -41 -3 -11 -7 -5 -1 -34 -68 0 -135 -97 -106 -39 -1 -21 -21 -13 -15 -13 -8 -23 -9 0 0 0 0 0 0 0 0 0 0 0
-79 -90 -138 -142 -157 -116 -264 -21 0 0 0 0 0 -15 0 0 0 0 0 0 0 0 -6 0 0 0 -6 -7 -21 -44 -27 -8 -1 0 0 0 0 0 0 0 0 0 0
-39 -42 -22 -17 -5 -20 -72 -106 -176 0 0 0 0 0 0 0 0 0 0 0 0 0 0 -1 0 -3 -13 -20 -13 -1 0 0 -20 0 0 0 0 0 0 0 0 0 0
-64 -137 -21 -42 -32 -39 -34 -14 -12 -8 0 0 0 0 0 0 0 0 0 0 0 0 0 0 0 -2 -11 -1 0 0 0 -1 0 0 0 0 0 0 0 0 0 0 0
-137 -57 -27 -82 -76 -46 -36 -18 -1 -14 -15 0 0 0 0 0 0 0 0 0 0 0 0 0 -1 0 0 0 0 0 0 0 0 0 0 0 0 0 0 0 0 0 0
-72 -28 -103 -45 -81 -33 -9 -4 -2 -2 -1 0 0 0 0 0 0 0 0 0 0 0 0 0 0 0 0 0 0 0 0 0 0 0 0 0 0 0 0 0 0 0 0
-20 0 0 -3 -5 0 0 0 -1 -1 -1 0 -2 -6 0 0 0 0 0 0 0 0 0 0 0 0 0 0 0 0 0 0 0 0 0 0 0 0 0 0 0 0 0
-6 -10 -7 -8 -27 -7 -7 -4 -2 -1 -2 -16 -65 0 0 0 0 0 0 0 0 0 0 0 0 0 0 0 0 0 0 0 0 0 0 0 0 0 0 0 0 0 0
-2 0 -10 -16 -47 -49 -7 -1 -7 -7 -4 -5 -60 -50 -19 0 0 -1 -1 0 0 0 0 0 0 0 0 0 0 0 0 0 0 0 0 0 0 0 0 0 0 0 0
-46 -11 -8 -19 -39 -8 -6 -10 -5 -23 -9 -5 -9 -7 -5 -7 0 -1 -4 0 0 0 0 0 0 0 0 0 0 0 0 0 0 0 0 0 0 0 0 0 0 0 0
0 -1 -3 -11 -15 -1 -6 -2 -15 -9 -9 -4 0 -10 -10 0 -10 0 -1 -7 0 0 0 0 0 0 0 0 0 0 0 0 0 0 0 0 0 0 0 0 0 0 0
0 -1 -1 -12 -6 -8 -4 -6 -15 -25 -20 -1 -16 -6 0 -2 0 -1 0 -4 -1 0 -1 0 -1 0 0 0 0 0 0 0 0 0 0 0 0 0 0 0 0 0 0
Wind_Speed
19 18 18 17 17 15 13 13 12 10 10 12 13 13 13 7 11 9 10 7 8 7 7 5 4 6 6 8 5 2 4 4 7 8 8 8 8 8 9 8 10 9 10
19 18 19 17 17 17 16 15 15 13 14 14 14 13 13 13 12 11 9 9 9 9 5 7 9 7 7 8 7 8 8 6 8 9 9 10 9 8 5 7 8 10 10
20 20 19 19 19 19 18 16 16 16 16 16 15 15 14 12 13 12 10 9 8 9 10 10 10 9 7 7 6 9 9 5 7 8 9 9 8 6 8 8 5 10 10
22 20 19 19 18 18 16 17 17 17 18 17 16 15 13 13 12 10 12 12 11 10 10 9 10 9 9 7 9 8 9 9 8 9 11 8 7 7 7 6 9 9 10
19 19 18 17 16 15 15 15 15 16 15 14 15 14 14 13 12 11 12 12 12 11 10 9 10 10 8 4 7 10 9 8 10 10 10 10 10 6 9 8 9 10 8
18 18 16 17 16 15 15 15 15 14 13 13 13 14 14 11 13 15 11 11 12 10 11 9 7 3 2 3 4 11 13 8 9 9 9 10 12 10 10 10 11 12 12
15 16 15 15 15 14 15 16 16 16 16 17 15 14 13 13 10 14 14 11 11 11 11 8 4 3 2 0 1 5 16 16 15 10 10 11 11 10 9 11 11 11 12
15 14 14 15 14 14 15 15 15 15 14 13 13 13 11 10 10 13 13 14 11 11 11 10 10 6 4 3 3 6 8 14 12 11 11 12 11 9 10 11 12 13 13
16 15 15 16 15 14 15 15 14 13 11 13 12 11 11 7 11 11 13 13 13 12 11 8 10 8 9 10 5 7 8 12 12 14 9 5 7 12 14 9 10 10 10
16 16 15 15 14 15 14 13 9 10 9 7 10 9 9 9 8 13 16 8 11 11 10 12 8 12 12 12 9 11 11 12 10 12 6 9 14 16 20 15 11 10 11
16 15 14 14 13 12 9 10 8 8 8 8 7 7 10 10 9 11 13 9 10 9 9 9 7 14 13 10 11 9 8 7 9 10 11 12 11 10 10 7 10 10 12
14 14 13 13 10 8 11 8 7 6 7 9 8 6 8 8 7 10 8 11 3 6 9 5 9 3 10 11 9 3 2 4 8 10 11 10 9 9 9 8 9 11 12
13 12 11 11 9 8 9 8 6 7 8 7 6 4 4 4 4 10 11 6 4 5 3 4 11 10 8 6 7 3 4 8 9 11 9 9 9 9 8 10 11 10 11
14 12 11 10 11 11 8 7 7 6 6 5 5 4 5 6 6 4 4 3 5 4 6 6 7 3 1 2 3 7 8 8 7 8 9 9 8 9 9 10 10 10 11
12 12 11 9 8 8 10 7 2 7 3 3 5 3 4 5 6 5 5 6 8 7 9 7 7 7 8 8 7 4 7 6 7 6 8 8 9 9 9 9 10 11 11
13 10 9 9 9 10 11 8 15 10 6 7 6 4 7 10 12 14 12 8 8 8 4 7 8 7 4 1 4 5 4 4 6 6 7 9 8 9 9 9 10 10 11
12 11 9 9 9 9 9 8 8 6 12 14 12 12 9 12 10 10 9 9 7 2 7 8 8 5 3 2 2 5 6 5 5 6 8 8 8 8 8 9 9 10 9
12 11 7 8 7 6 6 6 8 8 7 7 8 8 11 9 9 8 7 4 4 6 6 6 6 4 4 4 5 5 5 5 6 6 6 8 7 8 8 8 9 9 10
10 7 7 8 6 6 6 6 6 7 7 8 8 6 6 6 7 5 5 7 5 5 5 4 4 4 5 3 3 4 4 6 5 6 7 7 7 8 9 8 9 9 11
6 8 4 7 8 6 6 6 5 6 8 8 8 8 8 6 6 7 6 3 4 4 4 4 4 3 4 3 4 4 5 6 5 5 5 6 7 7 8 9 9 10 9
6 7 1 7 7 7 6 6 6 6 7 8 8 10 15 9 7 6 3 5 4 2 1 3 4 2 3 3 4 5 5 4 3 4 5 6 7 7 8 8 8 9 9
8 8 7 8 6 5 4 3 4 6 5 4 9 10 15 7 6 4 4 3 3 3 3 1 3 3 2 3 3 4 3 4 3 4 5 6 7 7 8 8 8 8 9
1 5 2 3 6 2 5 6 3 2 1 4 10 9 8 8 6 3 3 3 2 2 1 2 2 3 2 2 3 2 4 3 3 3 5 6 7 6 8 8 8 8 9
3 3 6 2 4 1 2 2 1 5 4 5 8 11 6 7 7 3 2 4 3 2 2 2 3 3 1 2 3 4 4 4 4 6 7 7 7 7 8 8 8 8 8
4 2 1 5 4 5 4 6 6 3 2 3 6 4 7 6 5 7 7 6 5 4 5 3 4 5 5 6 6 6 7 7 4 6 7 9 7 8 7 7 7 8 8
1 3 4 4 3 2 4 0 2 5 6 8 4 8 7 8 10 9 8 7 5 6 5 4 5 4 4 6 7 11 7 4 1 4 6 8 7 5 6 9 9 7 7
Wind_Direction
198 197 198 197 198 200 213 198 205 196 184 174 192 191 200 199 170 194 195 234 205 218 243 269 260 266 269 291 310 288 223 230 261 274 326 314 339 298 278 272 264 268 270
202 200 197 196 196 199 207 200 196 190 187 188 190 196 198 190 183 190 200 217 210 225 218 238 252 248 229 231 265 262 276 287 287 287 294 279 272 285 274 268 265 282 298
200 199 198 199 198 200 199 199 195 186 188 193 192 197 199 191 189 202 197 207 219 217 226 235 243 246 247 268 298 294 292 273 247 261 295 294 289 282 286 287 269 277 279
195 201 199 199 201 201 195 198 195 190 190 192 192 195 199 194 200 202 199 207 215 221 227 239 249 247 253 260 253 250 255 263 285 272 264 276 280 293 293 321 280 267 263
193 196 197 193 199 198 196 205 193 201 200 191 188 196 200 206 206 198 206 204 216 226 230 233 234 245 330 323 298 296 310 283 282 293 299 297 298 334 297 292 282 283 299
190 193 189 187 189 190 201 204 195 201 201 197 195 202 205 210 189 192 194 210 219 218 228 218 255 190 166 22 292 297 294 285 275 277 287 290 289 289 289 299 312 307 300
196 189 183 176 183 192 202 217 189 199 197 197 195 202 210 214 190 185 190 222 218 213 230 215 218 196 137 197 266 256 270 254 236 255 272 277 292 294 304 297 292 296 291
191 182 172 175 180 192 210 204 199 201 207 202 199 204 212 214 180 179 186 217 228 236 227 216 207 209 200 232 261 266 267 280 251 232 244 260 265 302 309 297 293 281 269
180 177 174 184 188 190 203 208 203 202 199 210 215 216 225 221 194 194 187 218 228 227 233 193 212 209 185 177 203 225 253 261 268 228 240 278 264 256 256 278 278 281 280
177 175 175 179 184 194 197 205 190 197 204 192 221 221 225 238 191 189 202 225 229 229 205 231 213 230 181 188 217 241 250 262 283 303 257 252 244 247 239 238 251 268 281
168 168 168 173 181 188 171 187 158 170 172 198 205 203 222 216 215 195 198 220 239 217 239 220 227 216 204 187 219 244 263 323 291 291 277 269 267 274 268 214 218 246 281
152 157 164 164 176 151 155 163 152 155 180 188 196 205 225 236 232 195 203 240 290 262 246 225 241 171 183 180 198 175 92 301 276 269 272 280 293 296 306 331 329 293 277
146 142 153 144 149 146 139 141 151 175 190 198 214 215 239 227 181 153 176 177 251 262 301 96 106 120 138 176 225 214 253 259 260 261 283 300 306 316 312 279 268 281 277
135 138 139 152 130 142 143 158 162 178 191 197 215 203 213 186 152 144 156 185 236 223 189 167 134 145 276 48 138 197 235 257 285 321 300 292 303 296 302 307 307 308 299
131 135 141 136 137 101 63 41 109 61 348 191 181 187 138 171 177 122 152 184 199 200 204 195 207 215 222 212 220 221 199 251 275 287 294 307 302 305 308 313 314 295 299
133 133 138 141 148 152 144 118 53 53 48 55 33 100 82 73 104 100 101 101 67 43 217 256 266 261 250 190 178 212 218 241 255 277 310 296 305 308 310 314 298 312 302
133 135 161 166 168 149 141 149 142 93 68 54 60 75 90 128 120 107 105 93 66 69 243 258 268 298 82 199 262 278 291 299 16 286 280 302 299 302 305 309 318 312 325
130 136 158 147 152 148 146 162 150 155 148 119 57 83 85 98 103 116 130 162 188 211 251 267 293 294 267 302 302 297 303 313 294 293 306 297 301 306 307 313 316 327 321
139 166 150 136 154 131 157 177 180 154 139 127 134 136 112 106 117 132 167 258 293 309 305 303 294 305 313 298 301 302 301 291 319 319 293 297 309 310 308 321 318 320 302
109 58 132 144 130 167 178 191 189 163 156 153 181 158 156 170 185 190 211 230 287 295 332 324 312 335 324 319 305 298 281 268 271 276 304 315 307 311 319 320 326 325 329
142 157 348 165 162 182 174 198 188 187 189 184 190 154 159 204 210 196 196 174 237 271 269 304 326 298 274 247 274 282 269 276 303 300 311 317 319 310 326 321 327 332 334
150 165 191 202 162 168 177 191 194 204 184 143 103 128 144 211 258 197 191 212 236 180 300 288 283 275 330 326 298 283 281 285 321 336 321 317 315 322 328 323 335 340 337
283 164 172 115 105 166 189 226 113 58 132 129 136 151 181 205 240 217 228 209 227 240 262 281 269 284 251 274 270 276 282 336 1 340 320 316 315 357 313 329 338 353 341
76 220 205 135 51 321 100 60 143 208 222 180 182 166 183 200 223 242 248 246 202 223 248 259 266 271 234 256 247 227 228 43 345 332 350 310 315 344 324 326 349 342 344
163 157 264 121 138 260 213 216 182 156 282 199 222 193 212 177 212 209 202 231 223 204 219 234 250 209 206 233 269 111 90 75 4 332 300 307 317 304 333 327 352 330 359
18 212 218 143 163 152 280 97 49 147 195 205 217 230 221 189 202 210 190 217 221 210 209 205 224 229 216 202 225 106 116 104 340 332 308 288 307 347 351 324 349 342 3